#timestamp,LO_Frequency,Hit,StdDev 
1604577615.7,286046998.9,N
1604577635.6,286046998.9,N
1604577655.4,286046999.3,N
1604577675.2,286046998.4,N
1604577695.1,286047001.1,N
1604577696.0,286047001.1,N
1604577715.8,286047001.0,N
1604577735.6,286046999.8,N
1604577755.5,286047000.6,N
1604577775.3,286047000.7,N
1604577795.2,286047000.5,N
1604577815.9,286047000.0,N
1604577835.7,286047002.7,N
1604577855.6,286047000.3,N
1604577875.4,286047000.6,N
1604577895.2,286047002.8,N
1604577915.1,286047002.1,N
1604577916.0,286047002.1,N
1604577935.8,286047001.9,N
1604577955.7,286047004.3,N
1604577975.5,286047002.2,N
1604577995.3,286047001.7,N
1604578015.2,286047004.1,N
1604578035.0,286047002.0,N
1604578035.9,286047002.0,N
1604578055.8,286047000.5,N
1604578075.6,286046998.3,N
1604578095.4,286046998.7,N
1604578115.3,286046999.5,N
1604578135.1,286046994.9,Y
1604578155.8,286046995.5,P
1604578175.7,286046995.0,N
1604578195.5,286046997.6,N
1604578215.4,286046997.9,N
1604578235.2,286046997.5,N
1604578255.0,286046996.8,N
1604578255.9,286046996.8,N
1604578275.8,286046997.8,N
1604578295.6,286046997.6,N
1604578315.4,286046997.2,N
1604578335.3,286046999.3,N
1604578355.1,286046999.2,N
1604578375.9,286046998.7,N
1604578395.7,286046999.5,N
1604578415.5,286046997.4,N
1604578435.4,286046997.3,N
1604578455.2,286046997.0,N
1604578475.0,286046997.1,N
1604578475.9,286046997.1,N
1604578495.8,286046997.3,N
1604578515.6,286046998.9,N
1604578535.5,286046995.5,Y
1604578555.3,286046998.9,P
1604578575.1,286046999.3,N
1604578595.9,286046997.0,P
1604578615.7,286046996.7,Y
1604578635.6,286046999.6,P
1604578655.4,286046996.6,P
1604578675.2,286046996.6,N
1604578695.1,286046998.3,N
1604578696.0,286046998.3,N
1604578715.8,286046998.3,N
1604578735.6,286047000.7,N
1604578755.5,286046998.4,N
1604578775.3,286047001.0,N
1604578795.2,286046998.3,N
1604578815.9,286046999.3,N
1604578835.7,286046998.7,N
1604578855.6,286046998.4,N
1604578875.4,286046998.2,N
1604578895.2,286046999.6,N
1604578915.1,286046999.6,N
1604578916.0,286046999.6,N
1604578935.8,286046996.9,N
1604578955.7,286046997.7,N
1604578975.5,286046999.5,N
1604578995.3,286046999.6,N
1604579015.2,286046998.2,N
1604579035.0,286046998.5,N
1604579035.9,286046998.5,N
1604579055.8,286046998.1,N
1604579075.6,286046998.5,N
1604579095.4,286046998.3,N
1604579115.3,286046998.9,N
1604579135.1,286046998.6,N
1604579155.8,286047001.0,N
1604579175.7,286046999.0,N
1604579195.5,286046999.0,N
1604579215.4,286047002.2,N
1604579235.2,286047002.4,N
1604579255.0,286047002.2,N
1604579255.9,286047002.2,N
1604579275.8,286047001.8,N
1604579295.6,286047002.6,N
1604579315.5,286047002.6,N
1604579335.3,286047000.1,N
1604579355.1,286047000.6,N
1604579375.9,286047000.4,N
1604579395.7,286047002.8,N
1604579415.5,286047004.3,N
1604579435.4,286047004.2,N
1604579455.2,286047001.3,N
1604579475.1,286047003.2,N
1604579476.0,286047003.2,N
1604579495.8,286047003.3,N
1604579515.6,286047003.4,N
1604579535.5,286047004.0,N
1604579555.3,286047005.3,N
1604579575.1,286047003.2,N
1604579595.9,286047003.9,N
1604579615.7,286047003.7,N
1604579635.6,286047004.2,N
1604579655.4,286047004.3,N
1604579675.2,286047003.8,N
1604579695.1,286047004.0,N
1604579696.0,286047004.0,N
1604579715.8,286047003.5,N
1604579735.6,286047002.9,N
1604579755.5,286047005.9,Y
1604579775.3,286047002.5,P
1604579795.2,286047002.1,P
1604579815.9,286047000.1,N
1604579835.7,286047000.6,N
1604579855.6,286047000.0,N
1604579875.4,286047003.9,Y
1604579895.3,286047000.4,P
1604579915.1,286047000.2,N
1604579916.0,286047000.2,N
1604579935.8,286046999.8,N
1604579955.7,286047002.4,Y
1604579975.5,286046999.7,P
1604579995.3,286046999.7,N
1604580015.2,286047002.4,P
1604580035.0,286047002.0,N
1604580035.9,286047002.0,N
1604580055.8,286047002.3,N
1604580075.6,286047001.6,N
1604580095.4,286047002.0,N
1604580115.3,286047002.0,N
1604580135.1,286047002.7,N
1604580155.9,286047002.8,N
1604580175.7,286047000.3,N
1604580195.5,286047000.0,N
1604580215.4,286046998.6,N
1604580235.2,286046999.2,N
1604580255.0,286046999.0,N
1604580255.9,286046999.0,N
1604580275.8,286046998.3,N
1604580295.6,286046998.3,N
1604580315.5,286047001.0,N
1604580335.3,286047000.3,N
1604580355.1,286047001.0,N
1604580375.9,286047002.3,N
1604580395.7,286047000.6,N
1604580415.5,286047001.0,N
1604580435.4,286046998.1,N
1604580455.2,286046998.7,N
1604580475.1,286046998.4,N
1604580476.0,286046998.4,N
1604580495.8,286047000.2,N
1604580515.6,286046999.9,N
1604580535.5,286047002.5,N
1604580555.3,286047002.2,N
1604580575.1,286047002.6,N
1604580595.9,286046999.9,N
1604580615.7,286046998.5,N
1604580635.6,286047000.4,N
1604580655.4,286047002.5,N
1604580675.2,286047001.4,N
1604580695.1,286047005.5,Y
1604580696.0,286047005.5,P
1604580715.8,286047003.2,N
1604580735.7,286047001.3,N
1604580755.5,286047002.0,N
1604580775.3,286047002.3,N
1604580795.2,286047002.5,N
1604580815.0,286047001.7,N
1604580815.9,286047001.7,N
1604580835.7,286047001.7,N
1604580855.6,286047001.3,N
1604580875.4,286047003.1,N
1604580895.3,286047003.0,N
1604580915.1,286047001.3,N
1604580916.0,286047001.3,N
1604580935.8,286047001.9,N
1604580955.7,286047004.2,Y
1604580975.5,286047001.2,P
1604580995.3,286047000.5,N
1604581015.2,286047000.7,N
1604581035.0,286046999.2,N
1604581035.9,286046999.2,N
1604581055.8,286046996.7,Y
1604581075.6,286046996.0,P
1604581095.4,286046996.1,N
1604581115.3,286046996.4,N
1604581135.1,286046995.9,N
1604581155.9,286046993.8,Y
1604581175.7,286046996.5,P
1604581195.5,286046998.9,P
